RYR27UW LIPH-LEPA

Flight info

Callsign RYR27UW
Flight time 1h 27m
Altitude 37000
Route ALBET DCT IBTOK DCT ERTEV DCT TALEP DCT BATIV DCT MAXOS DCT RIXOT
Aircraft A320/M-SDE3FGHIRWY/LB1

Departure

Time 2026-04-22 18:12
Airport Treviso Airport (LIPH)

Arrival

Time 2026-04-22 19:40
Airport Palma de Mallorca Airport (LEPA)
Time Latitude Longitude Altitude Speed Heading
2026-04-22 17:42 45.65414 12.20535 63 ft 0 kts 339°
2026-04-22 18:06 45.65395 12.20545 55 ft 4 kts 339°
2026-04-22 18:06 45.65370 12.20554 58 ft 4 kts
2026-04-22 18:06 45.65347 12.20543 60 ft 4 kts 54°
2026-04-22 18:06 45.65341 12.20526 56 ft 1 kts 69°
2026-04-22 18:07 45.65340 12.20524 56 ft 0 kts 69°
2026-04-22 18:09 45.65342 12.20531 55 ft 4 kts 69°
2026-04-22 18:09 45.65350 12.20562 55 ft 3 kts 69°
2026-04-22 18:09 45.65356 12.20584 63 ft 2 kts 69°
2026-04-22 18:09 45.65362 12.20606 55 ft 3 kts 69°
2026-04-22 18:10 45.65371 12.20642 63 ft 4 kts 70°
2026-04-22 18:10 45.65379 12.20673 58 ft 3 kts 70°
2026-04-22 18:10 45.65378 12.20714 63 ft 4 kts 114°
2026-04-22 18:10 45.65353 12.20741 59 ft 8 kts 155°
2026-04-22 18:11 45.65290 12.20776 63 ft 10 kts 159°
2026-04-22 18:11 45.65225 12.20796 59 ft 9 kts 206°
2026-04-22 18:11 45.65207 12.20759 61 ft 0 kts 249°
2026-04-22 18:12 45.65162 12.20589 60 ft 53 kts 249°
2026-04-22 18:12 45.64944 12.19767 55 ft 121 kts 249°
2026-04-22 18:12 45.64716 12.18912 67 ft 157 kts 248°
2026-04-22 18:12 45.64177 12.16959 854 ft 156 kts 246°
2026-04-22 18:13 45.63758 12.15507 1464 ft 163 kts 245°
2026-04-22 18:13 45.63278 12.13950 1893 ft 180 kts 246°
2026-04-22 18:13 45.62722 12.12202 2190 ft 207 kts 245°
2026-04-22 18:13 45.62095 12.10212 2589 ft 232 kts 246°
2026-04-22 18:14 45.61403 12.08011 3169 ft 251 kts 245°
2026-04-22 18:14 45.60664 12.05718 4012 ft 258 kts 245°
2026-04-22 18:14 45.59911 12.03402 4874 ft 265 kts 245°
2026-04-22 18:14 45.59122 12.00985 5686 ft 272 kts 245°
2026-04-22 18:15 45.58576 11.99315 6238 ft 277 kts 245°
2026-04-22 18:15 45.57478 11.95959 7274 ft 286 kts 245°
2026-04-22 18:15 45.56629 11.93359 8129 ft 291 kts 246°
2026-04-22 18:15 45.55771 11.90731 8977 ft 294 kts 247°
2026-04-22 18:16 45.54901 11.88066 9833 ft 298 kts 248°
2026-04-22 18:16 45.54019 11.85362 10626 ft 303 kts 248°
2026-04-22 18:16 45.53108 11.82565 11033 ft 322 kts 248°
2026-04-22 18:16 45.52133 11.79558 11292 ft 344 kts 248°
2026-04-22 18:17 45.51106 11.76415 11859 ft 354 kts 248°
2026-04-22 18:17 45.50054 11.73220 12583 ft 359 kts 247°
2026-04-22 18:17 45.48984 11.69991 13358 ft 361 kts 247°
2026-04-22 18:17 45.47905 11.66742 14099 ft 365 kts 247°
2026-04-22 18:18 45.46814 11.63457 14760 ft 368 kts 247°
2026-04-22 18:18 45.45718 11.60146 15420 ft 371 kts 247°
2026-04-22 18:18 45.44612 11.56808 16076 ft 374 kts 248°
2026-04-22 18:18 45.43496 11.53442 16733 ft 377 kts 247°
2026-04-22 18:19 45.42175 11.50188 17357 ft 384 kts 237°
2026-04-22 18:19 45.40482 11.47213 18003 ft 389 kts 232°
2026-04-22 18:19 45.38731 11.44265 18607 ft 392 kts 232°
2026-04-22 18:19 45.36970 11.41290 19163 ft 395 kts 233°
2026-04-22 18:20 45.35202 11.38295 19738 ft 397 kts 233°
2026-04-22 18:20 45.33421 11.35280 20333 ft 399 kts 233°
2026-04-22 18:20 45.31627 11.32252 20919 ft 402 kts 233°
2026-04-22 18:20 45.29819 11.29210 21499 ft 404 kts 233°
2026-04-22 18:21 45.28001 11.26155 22068 ft 406 kts 234°
2026-04-22 18:21 45.26171 11.23079 22611 ft 409 kts 234°
2026-04-22 18:21 45.24351 11.20027 23147 ft 411 kts 234°
2026-04-22 18:21 45.22496 11.16925 23674 ft 414 kts 234°
2026-04-22 18:22 45.20624 11.13800 24101 ft 417 kts 234°
2026-04-22 18:22 45.18745 11.10662 24537 ft 418 kts 235°
2026-04-22 18:22 45.16861 11.07515 24971 ft 420 kts 235°
2026-04-22 18:22 45.14970 11.04360 25404 ft 421 kts 235°
2026-04-22 18:23 45.13074 11.01199 25819 ft 422 kts 235°
2026-04-22 18:23 45.11166 10.98025 26230 ft 423 kts 236°
2026-04-22 18:23 45.09254 10.94847 26641 ft 425 kts 236°
2026-04-22 18:24 45.05413 10.88469 27419 ft 427 kts 237°
2026-04-22 18:24 45.03490 10.85275 27874 ft 426 kts 237°
2026-04-22 18:24 44.99638 10.78895 28685 ft 427 kts 238°
2026-04-22 18:25 44.97704 10.75702 29048 ft 429 kts 238°
2026-04-22 18:25 44.95763 10.72499 29368 ft 430 kts 238°
2026-04-22 18:25 44.93815 10.69290 29721 ft 431 kts 239°
2026-04-22 18:26 44.89753 10.62993 30319 ft 440 kts 233°
2026-04-22 18:26 44.87549 10.59985 30551 ft 441 kts 234°
2026-04-22 18:26 44.85347 10.56987 30841 ft 440 kts 234°
2026-04-22 18:26 44.83145 10.53987 31067 ft 441 kts 234°
2026-04-22 18:27 44.80939 10.50979 31347 ft 441 kts 234°
2026-04-22 18:27 44.78735 10.47975 31646 ft 441 kts 234°
2026-04-22 18:27 44.76535 10.44975 31931 ft 440 kts 234°
2026-04-22 18:27 44.74337 10.41979 32223 ft 440 kts 234°
2026-04-22 18:28 44.72135 10.38985 32512 ft 440 kts 234°
2026-04-22 18:28 44.69934 10.35994 32794 ft 439 kts 234°
2026-04-22 18:28 44.67736 10.33010 33114 ft 438 kts 234°
2026-04-22 18:28 44.65542 10.30038 33409 ft 438 kts 234°
2026-04-22 18:29 44.64090 10.28075 33603 ft 438 kts 233°
2026-04-22 18:29 44.61895 10.25107 33886 ft 438 kts 233°
2026-04-22 18:29 44.59698 10.22137 34119 ft 438 kts 233°
2026-04-22 18:29 44.57500 10.19172 34380 ft 439 kts 233°
2026-04-22 18:30 44.55301 10.16210 34592 ft 439 kts 233°
2026-04-22 18:30 44.50894 10.10292 35077 ft 438 kts 233°
2026-04-22 18:30 44.48691 10.07338 35290 ft 438 kts 233°
2026-04-22 18:31 44.46494 10.04389 35503 ft 438 kts 232°
2026-04-22 18:31 44.44291 10.01438 35723 ft 438 kts 232°
2026-04-22 18:31 44.42085 9.98492 35944 ft 439 kts 232°
2026-04-22 18:31 44.39879 9.95548 36171 ft 439 kts 232°
2026-04-22 18:32 44.37667 9.92598 36387 ft 439 kts 232°
2026-04-22 18:32 44.35460 9.89653 36575 ft 439 kts 232°
2026-04-22 18:32 44.33246 9.86701 36755 ft 439 kts 231°
2026-04-22 18:32 44.31038 9.83758 36949 ft 440 kts 231°
2026-04-22 18:33 44.28821 9.80812 37098 ft 439 kts 231°
2026-04-22 18:33 44.24387 9.74932 37149 ft 440 kts 231°
2026-04-22 18:34 44.19946 9.69056 37144 ft 440 kts 231°
2026-04-22 18:34 44.15506 9.63189 37150 ft 439 kts 231°
2026-04-22 18:35 44.11073 9.57340 37146 ft 439 kts 231°
2026-04-22 18:35 44.06668 9.51541 37147 ft 439 kts 231°
2026-04-22 18:36 44.02227 9.45721 37112 ft 439 kts 231°
2026-04-22 18:36 43.97784 9.39909 37130 ft 438 kts 231°
2026-04-22 18:37 43.93347 9.34112 37140 ft 438 kts 231°
2026-04-22 18:37 43.88910 9.28324 37149 ft 438 kts 231°
2026-04-22 18:38 43.84471 9.22534 37133 ft 438 kts 231°
2026-04-22 18:38 43.80032 9.16767 37151 ft 437 kts 230°
2026-04-22 18:39 43.73368 9.08152 37137 ft 437 kts 231°
2026-04-22 18:39 43.68933 9.02416 37143 ft 437 kts 230°
2026-04-22 18:40 43.64492 8.96694 37132 ft 437 kts 230°
2026-04-22 18:40 43.60134 8.90869 37140 ft 435 kts 233°
2026-04-22 18:41 43.55930 8.84885 37146 ft 434 kts 233°
2026-04-22 18:41 43.51733 8.78900 37146 ft 435 kts 233°
2026-04-22 18:42 43.47486 8.72959 37143 ft 435 kts 232°
2026-04-22 18:42 43.43649 8.66642 37126 ft 429 kts 239°
2026-04-22 18:43 43.40008 8.60144 37130 ft 429 kts 239°
2026-04-22 18:43 43.36362 8.53643 37142 ft 430 kts 239°
2026-04-22 18:44 43.32710 8.47142 37145 ft 430 kts 239°
2026-04-22 18:44 43.29045 8.40652 37132 ft 430 kts 239°
2026-04-22 18:45 43.25397 8.34210 37112 ft 431 kts 239°
2026-04-22 18:45 43.21712 8.27722 37121 ft 431 kts 239°
2026-04-22 18:46 43.18026 8.21228 37127 ft 432 kts 239°
2026-04-22 18:46 43.14338 8.14728 37135 ft 432 kts 239°
2026-04-22 18:47 43.10638 8.08233 37119 ft 433 kts 239°
2026-04-22 18:47 43.06924 8.01748 37129 ft 433 kts 238°
2026-04-22 18:48 43.03209 7.95258 37113 ft 433 kts 238°
2026-04-22 18:48 42.99489 7.88777 37117 ft 434 kts 238°
2026-04-22 18:49 42.95757 7.82305 37110 ft 434 kts 238°
2026-04-22 18:49 42.92022 7.75836 37112 ft 434 kts 238°
2026-04-22 18:50 42.88284 7.69367 37124 ft 434 kts 238°
2026-04-22 18:50 42.84536 7.62901 37129 ft 435 kts 238°
2026-04-22 18:51 42.80785 7.56440 37097 ft 435 kts 238°
2026-04-22 18:51 42.77033 7.49982 37092 ft 435 kts 238°
2026-04-22 18:52 42.73294 7.43574 37099 ft 436 kts 238°
2026-04-22 18:52 42.69525 7.37123 37111 ft 436 kts 238°
2026-04-22 18:53 42.65750 7.30677 37114 ft 436 kts 238°
2026-04-22 18:53 42.61973 7.24241 37119 ft 436 kts 237°
2026-04-22 18:54 42.58188 7.17815 37121 ft 436 kts 237°
2026-04-22 18:54 42.54406 7.11397 37119 ft 435 kts 237°
2026-04-22 18:55 42.50620 7.04982 37118 ft 435 kts 237°
2026-04-22 18:55 42.46825 6.98584 37116 ft 436 kts 237°
2026-04-22 18:56 42.43029 6.92192 37117 ft 436 kts 237°
2026-04-22 18:56 42.39233 6.85783 37104 ft 436 kts 237°
2026-04-22 18:57 42.35431 6.79399 37085 ft 436 kts 237°
2026-04-22 18:57 42.31611 6.73013 37093 ft 436 kts 237°
2026-04-22 18:58 42.27788 6.66642 37099 ft 437 kts 237°
2026-04-22 18:58 42.23965 6.60273 37099 ft 436 kts 237°
2026-04-22 18:59 42.20173 6.53952 37093 ft 436 kts 237°
2026-04-22 18:59 42.16350 6.47595 37091 ft 436 kts 237°
2026-04-22 19:00 42.12428 6.41336 37081 ft 441 kts 229°
2026-04-22 19:00 42.07587 6.36146 37082 ft 447 kts 222°
2026-04-22 19:01 42.02614 6.31125 37086 ft 447 kts 222°
2026-04-22 19:01 41.97642 6.26095 37081 ft 447 kts 222°
2026-04-22 19:02 41.92670 6.21067 37087 ft 448 kts 222°
2026-04-22 19:02 41.87691 6.16045 37093 ft 448 kts 222°
2026-04-22 19:03 41.82692 6.11037 37090 ft 448 kts 222°
2026-04-22 19:03 41.77694 6.06030 37063 ft 449 kts 222°
2026-04-22 19:04 41.72691 6.01027 37081 ft 449 kts 222°
2026-04-22 19:04 41.67684 5.96027 37099 ft 449 kts 222°
2026-04-22 19:05 41.62672 5.91030 37105 ft 449 kts 222°
2026-04-22 19:05 41.57665 5.86037 37093 ft 449 kts 222°
2026-04-22 19:06 41.52654 5.81057 37084 ft 449 kts 221°
2026-04-22 19:07 41.45121 5.73616 37093 ft 449 kts 221°
2026-04-22 19:07 41.40104 5.68654 37071 ft 449 kts 221°
2026-04-22 19:08 41.35120 5.63733 37083 ft 449 kts 221°
2026-04-22 19:08 41.30106 5.58794 37092 ft 449 kts 221°
2026-04-22 19:09 41.25083 5.53870 37093 ft 448 kts 221°
2026-04-22 19:09 41.20909 5.49779 37077 ft 448 kts 221°
2026-04-22 19:10 41.15047 5.44029 37084 ft 448 kts 221°
2026-04-22 19:10 41.10022 5.39121 37085 ft 449 kts 221°
2026-04-22 19:11 41.04991 5.34228 37088 ft 449 kts 221°
2026-04-22 19:11 40.99958 5.29333 37066 ft 448 kts 220°
2026-04-22 19:12 40.94934 5.24455 37040 ft 447 kts 220°
2026-04-22 19:12 40.92430 5.22021 36772 ft 447 kts 220°
2026-04-22 19:12 40.89920 5.19586 36429 ft 448 kts 220°
2026-04-22 19:12 40.87397 5.17144 35581 ft 451 kts 220°
2026-04-22 19:13 40.84857 5.14686 34731 ft 454 kts 221°
2026-04-22 19:13 40.82296 5.12212 33859 ft 457 kts 221°
2026-04-22 19:13 40.79719 5.09728 32874 ft 460 kts 220°
2026-04-22 19:13 40.77144 5.07251 32308 ft 454 kts 220°
2026-04-22 19:14 40.74605 5.04814 31698 ft 449 kts 220°
2026-04-22 19:14 40.72093 5.02402 31100 ft 445 kts 220°
2026-04-22 19:14 40.69600 5.00009 30503 ft 441 kts 220°
2026-04-22 19:14 40.67130 4.97639 29867 ft 438 kts 220°
2026-04-22 19:15 40.65507 4.96080 29463 ft 434 kts 220°
2026-04-22 19:15 40.62299 4.93007 28713 ft 427 kts 220°
2026-04-22 19:15 40.59912 4.90721 28152 ft 422 kts 220°
2026-04-22 19:15 40.57546 4.88457 27593 ft 418 kts 220°
2026-04-22 19:16 40.55208 4.86225 27056 ft 414 kts 220°
2026-04-22 19:16 40.52893 4.84010 26519 ft 409 kts 220°
2026-04-22 19:16 40.50601 4.81821 26003 ft 406 kts 220°
2026-04-22 19:16 40.48324 4.79648 25496 ft 402 kts 220°
2026-04-22 19:17 40.46073 4.77504 25000 ft 398 kts 221°
2026-04-22 19:17 40.43995 4.75164 24512 ft 390 kts 231°
2026-04-22 19:17 40.42298 4.72443 24038 ft 382 kts 239°
2026-04-22 19:17 40.40755 4.69623 23561 ft 379 kts 238°
2026-04-22 19:18 40.39734 4.67769 23217 ft 377 kts 238°
2026-04-22 19:18 40.38204 4.65001 22800 ft 373 kts 238°
2026-04-22 19:18 40.36685 4.62255 22489 ft 372 kts 238°
2026-04-22 19:18 40.35170 4.59510 22147 ft 370 kts 238°
2026-04-22 19:19 40.33664 4.56783 21796 ft 369 kts 238°
2026-04-22 19:19 40.32160 4.54066 21467 ft 367 kts 238°
2026-04-22 19:19 40.30664 4.51373 21138 ft 365 kts 238°
2026-04-22 19:19 40.29173 4.48694 20797 ft 363 kts 238°
2026-04-22 19:20 40.27690 4.46023 20465 ft 361 kts 238°
2026-04-22 19:20 40.26216 4.43367 20133 ft 360 kts 238°
2026-04-22 19:20 40.24751 4.40725 19801 ft 358 kts 238°
2026-04-22 19:20 40.23289 4.38097 19476 ft 356 kts 238°
2026-04-22 19:21 40.21832 4.35488 19147 ft 355 kts 238°
2026-04-22 19:21 40.20382 4.32891 18826 ft 353 kts 238°
2026-04-22 19:21 40.18938 4.30304 18502 ft 351 kts 238°
2026-04-22 19:21 40.17500 4.27732 18146 ft 349 kts 238°
2026-04-22 19:22 40.16071 4.25176 17825 ft 347 kts 238°
2026-04-22 19:22 40.14654 4.22641 17509 ft 344 kts 238°
2026-04-22 19:22 40.13242 4.20117 17193 ft 343 kts 238°
2026-04-22 19:22 40.11841 4.17613 16876 ft 340 kts 238°
2026-04-22 19:23 40.10447 4.15130 16566 ft 338 kts 238°
2026-04-22 19:23 40.09065 4.12657 16261 ft 335 kts 240°
2026-04-22 19:23 40.07994 4.09996 16007 ft 330 kts 249°
2026-04-22 19:23 40.07021 4.07287 15761 ft 329 kts 248°
2026-04-22 19:24 40.06048 4.04592 15513 ft 328 kts 248°
2026-04-22 19:24 40.05077 4.01905 15270 ft 326 kts 249°
2026-04-22 19:24 40.04124 3.99268 15030 ft 325 kts 249°
2026-04-22 19:24 40.03148 3.96570 14785 ft 324 kts 248°
2026-04-22 19:25 40.02199 3.93955 14547 ft 323 kts 249°
2026-04-22 19:25 40.01225 3.91278 14299 ft 322 kts 248°
2026-04-22 19:25 40.00266 3.88651 14068 ft 320 kts 248°
2026-04-22 19:25 39.99328 3.86068 13832 ft 319 kts 249°
2026-04-22 19:26 39.98382 3.83458 13568 ft 318 kts 249°
2026-04-22 19:26 39.97437 3.80855 13310 ft 317 kts 248°
2026-04-22 19:26 39.96490 3.78263 13043 ft 317 kts 248°
2026-04-22 19:26 39.95540 3.75662 12780 ft 318 kts 248°
2026-04-22 19:27 39.94590 3.73064 12520 ft 317 kts 248°
2026-04-22 19:27 39.93644 3.70472 12269 ft 316 kts 248°
2026-04-22 19:27 39.92702 3.67888 12017 ft 315 kts 248°
2026-04-22 19:27 39.91762 3.65314 11766 ft 314 kts 248°
2026-04-22 19:28 39.90821 3.62749 11516 ft 313 kts 247°
2026-04-22 19:28 39.89881 3.60195 11274 ft 312 kts 247°
2026-04-22 19:28 39.88944 3.57649 11035 ft 311 kts 247°
2026-04-22 19:28 39.88013 3.55112 10787 ft 310 kts 247°
2026-04-22 19:29 39.87083 3.52579 10549 ft 309 kts 247°
2026-04-22 19:29 39.86158 3.50058 10310 ft 308 kts 247°
2026-04-22 19:29 39.85235 3.47545 10074 ft 307 kts 246°
2026-04-22 19:29 39.84326 3.45079 9909 ft 296 kts 246°
2026-04-22 19:30 39.83742 3.43500 9821 ft 288 kts 246°
2026-04-22 19:30 39.82598 3.40418 9646 ft 280 kts 246°
2026-04-22 19:30 39.81756 3.38148 9518 ft 278 kts 246°
2026-04-22 19:30 39.80922 3.35891 9178 ft 276 kts 246°
2026-04-22 19:31 39.80092 3.33649 8767 ft 275 kts 246°
2026-04-22 19:31 39.79265 3.31411 8361 ft 274 kts 246°
2026-04-22 19:31 39.78443 3.29187 7954 ft 273 kts 246°
2026-04-22 19:31 39.77621 3.26969 7555 ft 272 kts 245°
2026-04-22 19:32 39.76803 3.24757 7154 ft 271 kts 245°
2026-04-22 19:32 39.75988 3.22546 6866 ft 271 kts 245°
2026-04-22 19:32 39.75169 3.20331 6577 ft 273 kts 245°
2026-04-22 19:32 39.74345 3.18113 6290 ft 273 kts 245°
2026-04-22 19:33 39.73518 3.15897 6044 ft 273 kts 245°
2026-04-22 19:33 39.72698 3.13699 5799 ft 267 kts 245°
2026-04-22 19:33 39.71900 3.11564 5549 ft 259 kts 245°
2026-04-22 19:33 39.71128 3.09495 5302 ft 251 kts 245°
2026-04-22 19:34 39.70297 3.07539 5093 ft 243 kts 239°
2026-04-22 19:34 39.69432 3.05713 5005 ft 231 kts 239°
2026-04-22 19:34 39.68605 3.03959 4796 ft 226 kts 240°
2026-04-22 19:34 39.67794 3.02227 4520 ft 224 kts 240°
2026-04-22 19:35 39.66992 3.00516 4215 ft 218 kts 240°
2026-04-22 19:35 39.66219 2.98867 3944 ft 212 kts 240°
2026-04-22 19:35 39.65458 2.97243 3706 ft 208 kts 239°
2026-04-22 19:35 39.64716 2.95661 3415 ft 203 kts 239°
2026-04-22 19:36 39.63988 2.94115 3128 ft 199 kts 238°
2026-04-22 19:36 39.63286 2.92609 2911 ft 191 kts 239°
2026-04-22 19:36 39.62616 2.91150 2703 ft 188 kts 238°
2026-04-22 19:36 39.61932 2.89683 2491 ft 190 kts 238°
2026-04-22 19:37 39.61246 2.88220 2257 ft 189 kts 237°
2026-04-22 19:37 39.60548 2.86789 1999 ft 186 kts 236°
2026-04-22 19:37 39.59878 2.85381 1719 ft 180 kts 238°
2026-04-22 19:37 39.59259 2.84032 1455 ft 167 kts 237°
2026-04-22 19:38 39.58677 2.82818 1274 ft 154 kts 238°
2026-04-22 19:38 39.58132 2.81663 1005 ft 151 kts 237°
2026-04-22 19:38 39.57590 2.80527 799 ft 145 kts 238°
2026-04-22 19:38 39.57068 2.79415 617 ft 144 kts 239°
2026-04-22 19:39 39.56553 2.78315 428 ft 142 kts 239°
2026-04-22 19:39 39.56043 2.77229 257 ft 140 kts 239°
2026-04-22 19:39 39.55538 2.76155 90 ft 139 kts 239°
2026-04-22 19:39 39.55077 2.75180 38 ft 106 kts 238°
2026-04-22 19:40 39.54780 2.74554 38 ft 62 kts 238°
2026-04-22 19:40 39.54604 2.74177 38 ft 31 kts 240°
2026-04-22 19:40 39.54552 2.73938 38 ft 20 kts 270°
2026-04-22 19:40 39.54552 2.73856 38 ft 5 kts 269°
2026-04-22 19:41 39.54551 2.73821 38 ft 3 kts 269°
2026-04-22 19:41 39.54551 2.73803 38 ft 2 kts 269°
2026-04-22 19:41 39.54551 2.73792 38 ft 1 kts 269°
2026-04-22 19:41 39.54551 2.73781 38 ft 2 kts 269°
2026-04-22 19:42 39.54553 2.73723 38 ft 11 kts 278°
2026-04-22 19:42 39.54596 2.73636 38 ft 12 kts 327°
2026-04-22 19:42 39.54668 2.73608 38 ft 7 kts 340°
2026-04-22 19:42 39.54700 2.73632 37 ft 5 kts 56°
2026-04-22 19:43 39.54715 2.73664 38 ft 0 kts 58°